Вернуться в каталог

THOR ABLESTAR DEB

АктивенLEO
NORAD 48824·DEBRIS·🇺🇸 United States

Запущен Jun 29, 1961 с Cape Canaveral Space Force Station

Loading…

Ближайшие Пролёты (ближайшие 24 часа)

TLE

СвежийSource: Space-Track

Эпоха: Sep 14, 2026, 03:25 UTC

1 48824U 61015NC  26257.14243286  .00000011  00000-0  54912-4 0  9998
2 48824  67.0024  79.7754 0096833 218.6218 140.7916 14.02803700655697

Отслеживайте THOR ABLESTAR DEB в реальном времени с AllMySat

Download on the App Store